Погода в Новониколаевке

Россия / Ростовская область     47°37′02″N   38°40′44″E
темп.,
°C
ветер,
м/с
пор.,
м/с
влажн.,
%
обл.,
%
осадки,
мм/ч
давл.,
гПа
погр.,
м
18 апреля, вс
вс1800:00+7зюз22765 0.0 102117
03:00+6вюв117562 0.0 102010
06:00+6вюв2278100 0.0 102020
09:00+11в3465100 0.0 1019481
12:00+13юв3353100 0.0 10181383
15:00+14ююв214787 0.0 10171594
18:00+13ю446395 0.0 1017382
21:00+9ююз247963 0.0 101882
19 апреля, пн
пн1900:00+8з118389 0.0 101710
03:00+8зсз1180100 0.0 101710
06:00+8сз1177100 0.0 101710
09:00+12ююв2164100 0.0 1017406
12:00+15в33537 0.0 10151211
15:00+15ююв4361100 0.0 1014598
18:00+14ююв3365100 0.0 1014399
21:00+10ююв227928 0.0 101420
20 апреля, вт
вт2000:00+10в2384100 0.0 101255
03:00+10всв4984100 0.1 1010377
06:00+10в51198100 3.8 1006472
09:00+12в81698100 11.6 1003600
12:00+13юв81591100 8.0 1002746
15:00+15ююз1013774 8.1 1002933
18:00+12ююз8138359 0.0 1002886
21:00+10ююз111881100 0.1 10051297
21 апреля, ср
ср2100:00+9ююз121885100 0.0 10051126
03:00+9юз101489100 0.1 1007959
06:00+9зюз81288100 0.2 10111003
09:00+10зюз698048 0.3 1015865
12:00+14юз895610 0.1 10161715
15:00+14юз785818 0.1 10171429
18:00+12ююз57695 0.0 1019501
21:00+9юз368229 0.0 1021146
22 апреля, чт
чт2200:00+9зюз117982 0.0 102221
03:00+8зсз117330 0.0 102210
06:00+7с11765 0.0 102310
09:00+12св23605 0.0 1024481
12:00+15всв2246100 0.0 10241672
15:00+16св0144100 0.0 10231796
18:00+14зюз2261100 0.0 102359
21:00+12ссв116793 0.0 102410